Location: Newark
(44.2886°N, 4.8431°E)
Time: 14:54:32
(UTC+00:00)

ZACube-1 - Pass Details

Date: 02 December 2020
Orbit: 584 x 665 km, 97.6° (Epoch: 14 January)

Event Time Altitude Azimuth Distance (km) Brightness Sun altitude
Rises 04:16:45 0° 23° (NNE) 2,830 ? -28.1°
Reaches altitude 10° 04:19:09 10° 35° (NE) 1,931 ? -27.6°
Maximum altitude 04:22:48 29° 96° (E) 1,119 ? -27.0°
Drops below altitude 10° 04:26:28 10° 156° (SSE) 1,949 ? -26.3°
Sets 04:28:54 0° 168° (SSE) 2,861 ? -25.9°
